Regional Weather Roundup
Issued by NWS Sterling, VA

Home | Current Version | Previous Version | Graphics & Text | Print | Product List | Glossary On
Versions: 1 2 3 4 5 6 7 8 9 10 11 12 13 14 15 16 17 18 19 20 21 22 23 24 25 26 27 28 29 30 31 32 33 34 35 36 37 38 39 40 41 42 43 44 45 46 47 48 49 50
000
ASUS41 KLWX 232211
RWRLWX

REGIONAL WEATHER ROUNDUP
NATIONAL WEATHER SERVICE BALTIMORE MD/WASHINGTON DC
600 PM EDT SUN JUL 23 2017

Note: "FAIR" indicates few or no clouds below 12,000 feet
with no significant weather and/or obstructions to visibility.
 TC=TEMPERATURE CELSIUS

 * =Non NWS site. Station does not report precipitation (e.g. rain,
    snow, etc.), thunder, or fog.

DCZ001-MDZ009-015-VAZ040>042-051-053>054-232300-
WASHINGTON METRO

CITY           SKY/WX    TMP DP  RH WIND       PRES   REMARKS
WASHINGTON NAT PTSUNNY   84  77  79 E3        29.78R HX  94
DULLES         PTSUNNY   76  67  73 N14G22    29.78R
ANDREWS AFB    MOSUNNY   83  74  73 W3        29.77S
FT BELVOIR     MOSUNNY   85  75  72 SE3       29.77S HX  94
QUANTICO       LGT RAIN  87  79  76 S6        29.77S HX 101
COLLEGE PARK*  CLOUDY    78  74  88 CALM      29.78S
LEESBURG*      CLOUDY    73  73 100 SW5       29.79F
MANASSAS*      CLOUDY    86  75  69 S5        29.77S HX  95
GAITHERSBURG*  CLOUDY    73  72  96 SE7       29.81S

$$

MDZ006>007-011-014-232300-
BALTIMORE METRO

CITY           SKY/WX    TMP DP  RH WIND       PRES   REMARKS
BWI AIRPORT    HVY RAIN  74  73  97 W10       29.78R FOG
MD SCIENCE CTR   N/A     79  74  84 MISG      29.78R
MARTIN STATE   LGT RAIN  82  75  78 S12G17    29.77R
ANNAPOLIS      LGT RAIN  79  79 100 NW6       29.76R
FORT MEADE*    CLOUDY    73  72  94 W8        29.82R VSB 3/4

$$

MDZ012-015-019>023-232300-
MARYLAND EASTERN SHORE

CITY           SKY/WX    TMP DP  RH WIND       PRES   REMARKS
OCEAN CITY     MOSUNNY   79  76  90 CALM      29.77F
SALISBURY      MOSUNNY   79  75  89 CALM      29.78F
BAY BRIDGE AP* LGT RAIN  79  75  89 W6        29.78R
CAMBRIDGE*     MOSUNNY   81  73  78 VRB3      29.78S
EASTON*        PTSUNNY   81  73  78 CALM      29.81R

$$

MDZ017>025-232300-
SOUTHERN MARYLAND

CITY           SKY/WX    TMP DP  RH WIND       PRES   REMARKS
PATUXENT RIVER CLOUDY    82  77  84 E6        29.77F HX  90
ST INIGOES     CLOUDY    84  77  79 E6        29.76F HX  94
LEONARDTOWN*   CLOUDY    86  73  66 E3        29.79F HX  93

$$

MDZ003>005-232300-
NORTH CENTRAL MARYLAND

CITY           SKY/WX    TMP DP  RH WIND       PRES   REMARKS
FREDERICK*     PTSUNNY   79  77  94 SW6       29.81R
HAGERSTOWN APT PTSUNNY   78  70  76 VRB3      29.78S
WESTMINSTER*   TSTM      77  73  88 SW9G18    29.80R

$$

MDZ501>502-232300-
WESTERN MARYLAND

CITY           SKY/WX    TMP DP  RH WIND       PRES   REMARKS
OAKLAND*       MOSUNNY   72  66  83 W3        29.86F
CUMBERLAND*    MOSUNNY   84  68  58 CALM      29.81F

$$

VAZ025>031-232300-
SHENANDOAH VALLEY

CITY           SKY/WX    TMP DP  RH WIND       PRES   REMARKS
WINCHESTER*    CLOUDY    82  68  61 NW7       29.77
FRONT ROYAL*   MOSUNNY   86  68  54 W9        29.77F
LURAY*         MOSUNNY   88  68  51 SW7       29.79F HX  91
NEW MARKET*    MOSUNNY   87  65  47 CALM      29.76F
STAUNTON*      MOSUNNY   88  63  43 W7        29.83F
WAYNESBORO*    CLOUDY    86  68  54 SW5       29.83F

$$

WVZ021-048>050-054>055-232300-
EASTERN WEST VIRGINIA PANHANDLE

CITY           SKY/WX    TMP DP  RH WIND       PRES   REMARKS
MARTINSBURG    PTSUNNY   85  71  63 W12       29.76F HX  90
PETERSBURG*    SUNNY     85  68  56 SW5       29.78F

$$

VAZ036>039-050-232300-
CENTRAL FOOTHILLS

CITY           SKY/WX    TMP DP  RH WIND       PRES   REMARKS
CHARLOTTESVILL PTSUNNY   93  68  43 VRB3      29.77F HX  97
CULPEPER*      CLOUDY    90  71  52 W6        29.76F HX  96
ORANGE*        SUNNY     88  68  51 CALM      29.77F HX  91
GORDONSVILLE*  MOSUNNY   91  69  49 W3        29.77F HX  95
WARRENTON*     CLOUDY    88  69  52 CALM      29.76F HX  92

$$

VAZ055>057-232300-
NORTH AND CENTRAL PIEDMONT

CITY           SKY/WX    TMP DP  RH WIND       PRES   REMARKS
FREDERICKSBRG* SUNNY     91  74  57 MISG      29.75F HX 100
STAFFORD*      SUNNY     90  74  59 SW3       29.80F HX  98

$$

NCZ024-NYZ072-PAZ021-071-VAZ022-071-232300-
OTHER REGIONAL OBSERVATIONS

CITY           SKY/WX    TMP DP  RH WIND       PRES   REMARKS
NEW YORK CITY  CLOUDY    76  69  79 SE7       29.86R
PHILADELPHIA   LGT RAIN  83  69  62 SE12      29.77F
PITTSBURGH     PTSUNNY   78  71  79 SW7       29.76F
ROANOKE        CLOUDY    92  62  36 CALM      29.84F HX  92
RICHMOND       MOSUNNY   95  67  39 W10G18    29.75F HX  99
RALEIGH        TSTM      81  74  79 W15G32    29.82R VSB 1

$$

ANZ530>537-232300-
MARINE OBSERVATIONS

STATION/POSITION TIME  TEMP    WIND        PRES
                       AIR SEA DIR/SP/G
                 (UTC) (F)     (DEG/KT/KT) (MB)
THOMAS PT LIGHT  2200   80 83  280/  6/  7   N/A
BALT KEY BRIDGE  2148   77     220/ 13/ 16 1007.5R
COVE POINT       2148   79     150/  5/  6 1009.1F
LEWISETTA        2148   83 85  110/ 10/ 11 1008.0F
SOLOMONS ISLAND  2148   81 85   80/  5/  6   N/A
PINEY POINT      2148          130/  1/  2   N/A

$$




USA.gov is the U.S. government's official web portal to all federal, state and local government web resources and services.